This is the latest recevied weather packets stored in our database for station/object CT2IRJ-11. If no packets are shown the sender has not sent any weather packets the latest 10 day(s).
| Time | Temp. | Humidity | Pressure | Rain* | Wind** | Luminosity | Snow |
|---|---|---|---|---|---|---|---|
| 1777574010 | 18.33° C | 70% | 1017.3 hPa | 0 mm | - | 33 W/m² | - |
| 1777573710 | 18.33° C | 70% | 1017.6 hPa | 0 mm | - | 36 W/m² | - |
| 1777573410 | 18.33° C | 69% | 1017.3 hPa | 0 mm | - | 40 W/m² | - |
| 1777573110 | 18.89° C | 69% | 1017.3 hPa | 0 mm | - | 51 W/m² | - |
| 1777572810 | 18.89° C | 69% | 1017.3 hPa | 0 mm | - | 66 W/m² | - |
| 1777572510 | 18.89° C | 69% | 1016.9 hPa | 0 mm | - | 78 W/m² | - |
| 1777572210 | 18.89° C | 69% | 1016.9 hPa | 0 mm | - | 89 W/m² | - |
| 1777571909 | 18.89° C | 69% | 1017.3 hPa | 0 mm | - | 77 W/m² | - |
| 1777571609 | 18.89° C | 69% | 1016.9 hPa | 0 mm | - | 76 W/m² | - |
| 1777571311 | 18.89° C | 69% | 1017.3 hPa | 0 mm | - | 68 W/m² | - |
| 1777571009 | 18.89° C | 69% | 1016.9 hPa | 0 mm | - | 63 W/m² | - |
| 1777570710 | 19.44° C | 68% | 1016.9 hPa | 0 mm | - | 71 W/m² | - |
| 1777570409 | 20° C | 66% | 1017.3 hPa | 0 mm | - | 96 W/m² | - |
| 1777570110 | 20° C | 68% | 1016.9 hPa | 0 mm | - | 157 W/m² | - |
| 1777569809 | 20° C | 68% | 1016.9 hPa | 0 mm | - | 104 W/m² | - |
| 1777569510 | 20° C | 67% | 1016.6 hPa | 0 mm | - | 163 W/m² | - |
| 1777569209 | 19.44° C | 68% | 1016.9 hPa | 0 mm | - | 145 W/m² | - |
| 1777568912 | 19.44° C | 67% | 1016.9 hPa | 0 mm | - | 142 W/m² | - |
| 1777568610 | 19.44° C | 68% | 1016.9 hPa | 0 mm | - | 137 W/m² | - |
| 1777568310 | 19.44° C | 67% | 1016.9 hPa | 0 mm | - | 100 W/m² | - |
| 1777568011 | 20° C | 65% | 1016.6 hPa | 0 mm | - | 78 W/m² | - |
| 1777567710 | 20.56° C | 62% | 1016.9 hPa | 0 mm | - | 64 W/m² | - |
| 1777567409 | 20° C | 62% | 1016.6 hPa | 0 mm | - | 66 W/m² | - |
| 1777567110 | 20.56° C | 61% | 1016.6 hPa | 0 mm | - | 67 W/m² | - |
| 1777566809 | 20.56° C | 62% | 1016.6 hPa | 0 mm | - | 88 W/m² | - |
* Rain latest hour (hover to see other rain measurements)
** Current wind speed in m/s (hover to see current wind gust speed)